Regional Weather Roundup
Issued by NWS

Home | Current Version | Previous Version | Text Only | Print | Product List | Glossary Off
Versions: 1 2 3 4 5 6 7 8 9 10 11 12 13 14 15 16 17 18 19 20 21 22 23 24 25 26 27 28 29 30 31 32 33 34 35 36 37 38 39 40 41 42 43 44 45 46 47 48 49 50

192
ASUS43 KOAX 060310
RWRNE

WEATHER ROUNDUP FOR NEBRASKA
NATIONAL WEATHER SERVICE OMAHA NE
900 PM CST FRI FEB 05 2016

NOTES: SATELLITE DATA IS BEING USED TO AUGMENT CLOUD COVER ABOVE
       12000 FEET.
       "FAIR" INDICATES FEW OR NO CLOUDS BELOW 12,000 FEET WITH NO
       SIGNIFICANT WEATHER AND/OR OBSTRUCTIONS TO VISIBILITY.

  * THESE STATIONS DO NOT REPORT WEATHER SUCH AS RAIN...SNOW OR FOG.

NEZ001>004-019>022-054>056-060400-
NEBRASKA PANHANDLE

CITY           SKY/WX    TMP DP  RH WIND       PRES   REMARKS
SCOTTSBLUFF    CLOUDY    16  11  80 NW10      30.26F WCI   4
ALLIANCE       CLEAR     16  10  77 W12       30.22F WCI   3
CHADRON        CLEAR     25  17  72 W12       30.22S WCI  14
KIMBALL        CLOUDY    24  13  63 NW16      30.26R WCI  11
SIDNEY         CLOUDY    21  13  71 W18       30.26F WCI   6
$$

NEZ057>060-069>072-079>082-060400-
SOUTHWEST NEBRASKA

CITY           SKY/WX    TMP DP  RH WIND       PRES   REMARKS
NORTH PLATTE   CLEAR     21  18  88 NW5       30.25R WCI  15
IMPERIAL       CLEAR     25  16  68 NW13      30.27S WCI  14
LEXINGTON      CLEAR     24  20  86 N5        30.26S WCI  18
MCCOOK         CLEAR     26  20  77 W12       30.27S WCI  16
OGALLALA       CLEAR     22  15  75 W5        30.26R WCI  16
$$

NEZ005>010-023>029-035>040-094-060400-
NORTH CENTRAL NEBRASKA

CITY           SKY/WX    TMP DP  RH WIND       PRES   REMARKS
VALENTINE      CLEAR     22  19  89 SW7       30.20F WCI  13
AINSWORTH      CLEAR     26  23  91 SW6       30.22S WCI  19
BROKEN BOW     CLEAR     25  21  85 NW6       30.24S WCI  18
O`NEILL        CLEAR     30  27  89 W5        30.23S WCI  25
ORD            CLOUDY    34  26  72 NW10      30.23F WCI  26
THEDFORD       CLEAR     24  22  92 SW5       30.23S WCI  18
$$

NEZ041-046>049-061>064-073>077-083>087-060400-
SOUTH CENTRAL NEBRASKA

CITY           SKY/WX    TMP DP  RH WIND       PRES   REMARKS
GRAND ISLAND   CLOUDY    33  29  85 NW5       30.25R WCI  29
AURORA         CLOUDY    31  30  97 NW7       30.25R WCI  24
HASTINGS       CLOUDY    32  28  85 NW5       30.25R WCI  27
HEBRON         PTCLDY    27  24  89 W5        30.25S WCI  21
HOLDREGE       PTCLDY    32  24  72 N6        30.26R WCI  26
KEARNEY *      CLOUDY    34 -15  12 N12       30.26R WCI  25
YORK           CLOUDY    32  32 100 NW9       30.24R WCI  24
$$

NEZ011>018-030>034-042>045-060400-
NORTHEAST NEBRASKA

CITY           SKY/WX    TMP DP  RH WIND       PRES   REMARKS
NORFOLK        CLOUDY    35  30  82 NW15      30.22S WCI  25
ALBION         CLOUDY    35  29  80 N8        30.23S WCI  28
BLAIR          CLOUDY    29  28  96 S5        30.22R FOG     WCI  23
COLUMBUS *     CLOUDY    34  27  75 NW12      30.24R WCI  25
FREMONT        CLOUDY    32  30  93 CALM      30.24R
TEKAMAH        CLOUDY    29  27  92 S5        30.23S FOG     WCI  24
WAYNE          CLOUDY    33  30  90 NW13      30.23S WCI  24
$$

NEZ050>053-065>068-078-088>093-060400-
SOUTHEAST NEBRASKA

CITY           SKY/WX    TMP DP  RH WIND       PRES   REMARKS
LINCOLN        CLOUDY    30  27  88 CALM      30.25S
OMAHA EPPLEY   CLOUDY    29  28  96 SE6       30.24S FOG     WCI  23
BEATRICE       PTCLDY    31  28  86 W3        30.25R
FALLS CITY     CLOUDY    34  26  72 CALM      30.26S
NEBRASKA CITY  CLOUDY    29  29 100 S6        30.24F WCI  23
PLATTSMOUTH    LGT SNOW  29  28  95 S7        30.23F WCI  22
$$

NEZ044-045-051>053-067-060400-
OMAHA AREA

CITY           SKY/WX    TMP DP  RH WIND       PRES   REMARKS
OMAHA EPPLEY   CLOUDY    29  28  96 SE6       30.24S FOG     WCI  23
BLAIR          CLOUDY    29  28  96 S5        30.22R FOG     WCI  23
FREMONT        CLOUDY    32  30  93 CALM      30.24R
MILLARD        CLOUDY    30  28  93 CALM      30.24S FOG
OFFUTT AFB     CLOUDY    27  27 100 E2        30.23F FOG
PLATTSMOUTH    LGT SNOW  29  28  95 S7        30.23F WCI  22
WAHOO          CLOUDY    33  31  94 CALM      30.23S
$$




USA.gov is the U.S. government's official web portal to all federal, state and local government web resources and services.